Theta_e
356 354 353 354 352 351 353 354 353 354 353 353 353 353 351 351 354 355 354 352 356 356 356 357 356 355 354 351 350 351 350 348 349 348 347 345 348 348 348 349 353 352 350
356 355 355 355 354 355 353 352 354 355 356 356 356 354 353 350 352 355 356 351 354 354 356 357 358 357 359 358 356 353 351 352 353 355 352 352 351 350 351 356 357 353 353
356 356 357 357 357 356 356 354 353 355 357 357 358 358 356 353 351 354 356 356 352 354 356 358 358 359 360 359 360 358 355 355 356 357 355 351 348 349 351 352 352 353 354
354 354 357 359 358 357 356 356 355 356 358 358 359 359 358 356 353 351 353 356 356 354 354 356 357 358 360 361 361 361 361 359 355 355 354 353 351 351 350 352 353 351 352
355 354 357 359 359 358 357 357 358 358 358 359 359 359 359 357 354 352 350 352 355 356 354 355 357 357 358 360 359 358 360 359 357 354 353 350 348 349 354 353 354 353 353
357 355 355 359 360 360 359 358 359 359 359 360 360 360 359 356 351 350 350 351 351 352 355 356 356 355 355 356 356 355 353 357 362 358 355 354 355 355 354 352 355 356 361
359 357 356 359 361 361 360 360 361 361 360 361 361 361 360 360 352 350 348 350 351 352 353 354 354 348 350 354 356 355 353 353 353 354 358 358 357 357 357 358 361 363 363
359 361 358 360 362 362 362 363 363 363 362 362 363 362 361 360 357 353 351 349 349 350 352 354 355 352 349 350 354 356 356 356 357 356 356 356 358 359 361 359 360 360 359
362 362 361 361 363 364 364 364 364 364 364 364 364 363 363 361 358 355 354 353 352 353 355 354 354 355 356 356 355 354 353 353 349 349 349 350 350 351 354 357 358 359 360
361 362 363 362 363 365 365 364 364 364 364 361 362 363 363 363 361 358 355 354 353 353 353 355 355 355 356 357 357 358 359 359 357 356 356 358 362 364 364 362 362 363 362
360 362 364 363 364 365 365 365 365 364 361 363 362 363 364 362 363 362 358 356 353 352 351 349 350 352 352 351 351 355 359 359 359 359 360 362 363 363 366 365 364 363 362
360 362 363 364 363 363 365 366 365 365 365 365 364 364 360 362 361 361 360 359 356 354 351 346 346 346 349 351 353 354 354 354 355 356 358 360 361 363 362 362 362 359 356
361 362 363 363 363 362 365 366 365 365 362 362 362 361 357 356 361 360 358 358 356 356 353 350 352 353 359 359 358 357 358 356 356 358 360 361 362 362 362 362 359 355 352
362 363 363 363 363 362 363 364 362 361 362 359 359 359 357 355 354 360 361 360 358 357 355 353 355 358 361 362 362 362 360 359 361 362 362 362 362 363 364 357 354 351 345
360 360 361 361 361 363 361 360 361 359 359 359 355 356 358 359 359 358 361 363 359 358 358 357 357 357 358 360 362 363 364 364 362 362 363 364 363 365 361 357 351 351 346
358 360 360 360 362 361 360 358 358 358 358 357 357 357 360 358 358 360 360 362 364 364 358 360 361 361 362 362 363 362 363 363 363 365 365 364 363 360 357 353 351 349 350
341 352 361 360 361 360 360 360 360 356 356 357 357 357 357 358 359 360 362 362 362 362 363 363 361 360 363 363 361 361 361 361 364 364 363 362 359 357 355 352 351 350 347
334 338 345 356 358 358 359 359 359 361 360 357 356 356 355 355 356 356 358 360 361 360 360 362 362 364 363 362 362 363 364 362 364 363 361 359 356 356 354 351 351 349 346
328 325 332 341 347 359 361 362 362 357 358 354 353 356 356 354 353 354 355 355 359 362 362 362 362 362 363 363 363 363 360 361 364 362 359 358 356 355 353 351 351 349 344
324 327 325 331 338 346 351 347 345 347 346 348 348 354 352 353 353 354 353 352 356 359 357 357 358 359 360 360 360 363 366 364 362 358 357 354 354 352 350 348 349 346 342
324 324 325 326 330 331 339 337 345 345 347 342 341 348 351 351 354 351 356 355 356 357 359 358 357 357 362 362 364 363 363 362 360 357 353 351 350 349 350 352 348 343 342
323 324 325 326 327 329 329 333 339 344 345 343 344 346 346 347 353 348 346 349 356 359 358 359 360 360 362 362 361 361 359 357 355 353 352 351 351 350 349 348 345 344 341
322 323 326 327 327 327 327 330 333 335 337 339 341 342 343 342 342 338 341 346 352 354 355 359 361 361 362 361 359 357 357 357 356 354 352 352 351 349 347 346 344 342 341
315 316 319 323 325 328 330 331 331 333 332 333 336 337 342 344 344 346 346 347 349 353 356 357 356 356 356 357 354 353 351 351 351 348 348 347 347 346 344 342 342 340 339
305 305 305 307 310 313 319 321 320 321 326 324 323 324 325 327 328 326 326 327 332 340 342 340 339 339 342 341 339 338 340 343 345 344 343 345 344 343 340 341 340 338 338
300 300 300 300 300 300 301 302 302 303 303 304 303 304 305 306 307 308 310 314 317 318 320 322 323 323 321 320 330 332 335 336 337 339 338 340 340 338 337 337 336 336 336
Wind_Speed
38 37 36 34 34 34 28 25 25 19 17 18 15 14 16 17 16 17 17 12 16 14 13 10 11 12 12 11 11 11 12 12 13 15 14 14 13 14 20 20 16 18 21
39 38 38 36 36 34 33 31 26 24 22 21 20 19 18 19 19 19 18 17 16 15 14 15 15 15 17 16 14 15 15 14 15 15 18 19 19 19 18 17 17 20 21
38 39 37 37 36 35 33 32 30 28 26 24 23 23 21 20 20 20 20 20 18 17 17 17 17 17 17 18 15 16 16 17 17 18 19 19 20 20 20 19 18 22 21
38 39 39 38 38 37 34 34 33 31 29 27 26 25 24 23 22 22 22 22 21 20 19 18 18 19 19 18 18 18 19 20 20 20 21 21 20 19 19 18 17 22 24
36 36 38 39 38 36 37 35 33 32 30 29 27 26 26 25 25 26 25 23 23 22 20 20 20 21 21 20 19 19 18 19 20 20 19 20 20 19 20 23 23 24 25
35 37 36 37 37 38 37 35 33 32 31 30 29 28 28 28 28 28 28 25 24 23 22 22 23 22 23 25 28 30 29 24 19 22 24 22 22 22 22 24 23 23 19
31 34 33 34 35 36 36 35 35 33 31 31 30 29 29 31 29 29 31 28 23 24 24 23 23 23 25 27 25 26 27 27 29 31 28 27 26 23 21 20 19 19 20
33 32 35 35 35 35 34 34 34 33 34 32 31 31 30 30 31 32 30 31 29 28 25 24 26 27 27 24 22 24 25 24 24 25 28 27 22 19 16 22 23 20 20
33 36 37 36 35 34 35 34 33 31 30 31 31 31 31 30 31 34 32 27 28 29 28 29 30 30 31 30 30 30 30 31 29 29 31 33 32 30 25 23 17 16 17
38 37 34 35 35 35 35 35 34 32 32 32 31 30 31 30 31 34 34 28 27 28 28 31 34 35 33 33 32 29 29 27 24 23 22 21 18 16 16 18 14 13 12
32 32 32 34 34 34 32 31 32 33 31 30 28 28 29 30 30 32 35 33 29 27 28 27 28 30 31 31 35 33 29 24 22 21 21 20 17 17 15 12 11 11 8
27 30 32 32 33 32 31 29 28 27 26 25 26 24 28 28 30 31 33 35 34 31 29 27 25 28 28 28 28 29 28 29 26 24 22 21 18 17 18 17 13 8 7
24 26 28 30 31 29 31 29 28 27 28 28 26 27 28 27 27 31 34 35 37 36 31 27 27 26 17 17 21 23 22 19 20 21 20 18 17 18 13 14 11 10 10
22 23 26 28 29 30 30 29 28 28 28 26 26 25 25 25 26 25 30 35 34 34 37 36 30 23 19 19 17 19 22 20 22 21 20 19 17 16 11 11 11 10 5
20 24 25 27 29 29 27 29 29 27 28 27 25 24 23 23 25 25 22 20 22 27 24 22 23 25 26 26 24 23 21 19 20 21 22 20 19 13 12 15 14 12 10
15 18 24 26 27 29 29 18 23 19 23 20 16 16 11 15 13 18 23 18 12 21 21 22 23 23 23 22 19 20 22 23 23 22 21 19 17 19 19 19 18 15 13
19 6 20 25 26 27 26 26 21 16 14 13 19 17 12 8 5 3 8 15 15 14 16 18 20 21 17 16 19 19 20 23 22 20 20 18 18 19 21 19 18 15 14
23 21 20 15 18 25 25 25 23 23 19 20 20 19 19 23 19 18 12 12 15 18 20 22 22 16 16 19 20 21 22 18 16 17 18 18 19 19 20 18 18 17 16
20 22 17 17 10 3 12 16 14 13 19 19 15 16 19 19 22 23 24 22 23 24 22 22 23 22 22 22 23 22 20 16 15 16 18 18 19 19 19 18 19 18 17
18 14 17 14 12 6 7 10 10 11 12 14 12 8 16 13 10 12 16 20 25 29 26 24 23 22 23 22 18 17 13 14 16 17 20 20 23 23 19 21 19 16 18
7 9 11 9 7 6 2 10 11 12 9 4 4 3 6 8 9 6 16 17 20 24 26 24 23 22 15 12 15 16 16 17 18 17 17 22 22 21 23 23 20 18 18
4 4 5 8 10 12 10 14 6 9 6 6 8 6 15 8 8 13 17 19 16 16 15 18 20 22 15 16 18 17 18 18 18 17 17 19 21 22 22 22 19 20 19
13 13 10 4 3 6 9 19 7 10 12 12 18 20 14 12 13 17 16 16 14 14 15 14 16 17 19 15 13 14 16 17 16 14 16 18 20 23 20 20 20 20 19
16 14 12 9 9 8 7 13 8 5 8 10 8 11 8 6 2 1 3 6 10 14 14 11 13 14 15 13 13 13 14 13 13 15 17 17 18 18 18 19 20 21 16
17 12 10 13 14 13 13 14 17 19 18 18 17 16 15 13 11 9 10 8 6 3 2 5 6 6 5 2 5 5 11 17 19 15 11 16 17 16 19 17 16 18 19
22 21 21 20 19 18 19 18 18 17 17 15 14 13 12 12 11 11 11 9 7 6 5 2 3 3 4 7 10 12 11 12 14 17 14 12 14 16 17 16 17 19 21
Wind_Direction
201 201 201 199 202 207 210 207 215 219 219 217 218 214 217 216 214 214 227 236 202 218 245 250 225 247 258 263 253 252 258 261 268 278 285 293 299 288 282 278 284 290 294
204 202 202 201 201 204 207 213 209 212 215 218 216 216 217 218 216 214 221 224 222 226 227 235 242 242 233 254 266 270 270 274 280 287 286 287 284 288 289 286 284 295 289
204 203 203 204 204 204 204 206 208 208 209 215 217 217 214 216 217 218 222 227 227 222 227 231 236 240 246 255 260 264 263 253 256 260 277 288 293 294 287 286 284 282 285
203 207 205 204 206 205 203 205 206 207 207 210 214 216 216 216 218 221 222 226 228 229 231 236 240 242 243 246 250 256 262 267 274 275 274 275 281 287 282 281 304 315 303
202 203 206 205 205 205 205 205 206 208 209 211 212 215 216 218 220 219 223 224 225 230 235 236 240 244 247 247 251 255 259 257 265 270 278 291 296 307 320 310 299 307 311
200 203 204 202 202 204 205 206 206 205 207 210 213 214 216 220 224 223 217 223 228 230 232 236 242 250 253 252 253 255 257 263 270 274 280 284 292 294 303 306 306 302 308
208 202 203 201 202 204 203 202 203 204 206 210 214 215 219 222 225 226 225 223 229 231 233 236 240 248 250 247 254 262 266 265 262 262 266 270 281 287 292 293 294 304 301
206 203 201 201 202 202 203 204 202 203 206 209 214 216 219 225 227 228 229 230 232 238 239 240 242 246 248 251 255 257 258 260 265 269 263 266 266 272 272 289 297 297 295
210 208 201 201 200 202 203 202 203 205 209 213 216 216 218 224 228 230 228 228 234 238 241 243 245 249 251 253 253 254 260 262 266 268 269 271 274 277 277 278 282 278 290
209 207 204 203 203 204 205 203 202 205 211 217 219 219 220 224 226 229 230 227 233 237 242 245 247 247 250 252 251 251 257 260 266 271 274 278 281 279 279 258 256 265 291
205 205 205 204 205 207 207 206 204 205 212 215 221 221 223 225 226 231 232 224 230 235 241 246 245 252 255 254 251 247 251 260 266 272 274 274 273 275 269 260 256 275 282
200 200 202 202 204 202 204 204 206 205 209 213 217 223 226 228 231 233 233 231 227 232 241 246 248 252 254 254 253 254 258 259 261 264 266 269 271 268 270 265 246 254 250
194 199 201 201 201 205 196 199 200 203 211 215 216 222 228 227 230 234 235 236 236 232 237 242 250 258 262 244 245 249 256 250 248 252 256 260 259 269 254 229 233 244 252
195 202 201 198 201 205 196 200 204 206 209 218 217 222 226 228 230 227 227 231 236 237 239 240 244 250 249 248 250 249 243 242 243 248 250 252 257 252 220 205 215 209 189
206 207 201 201 199 201 204 200 205 211 211 210 218 216 225 228 231 230 222 210 222 227 227 235 239 242 246 247 247 247 248 246 237 244 249 244 247 240 212 226 210 204 209
222 210 201 204 193 202 201 191 200 195 212 219 217 225 234 242 231 219 216 213 209 214 206 227 232 236 240 242 244 245 251 249 247 246 248 250 236 232 222 216 210 219 233
358 319 208 212 188 202 195 197 188 202 213 221 223 236 253 270 4 261 227 225 225 208 219 231 236 241 235 235 244 239 242 249 250 249 245 239 227 221 207 200 207 218 224
2 3 359 216 194 198 197 192 195 175 182 197 216 224 234 252 259 264 262 253 253 245 238 241 245 243 239 237 249 245 242 243 226 232 236 233 222 213 201 208 210 217 221
2 3 350 1 29 152 153 176 177 183 196 179 177 183 197 211 235 248 255 253 255 255 241 235 242 246 241 241 243 247 255 250 234 232 232 227 213 205 206 212 221 225 221
4 339 353 344 349 13 172 214 237 230 202 207 210 175 172 164 198 221 240 241 240 247 250 251 250 246 242 241 252 272 258 236 236 236 232 221 215 209 209 217 225 223 222
345 332 309 299 270 266 76 305 256 219 197 179 297 300 83 196 201 233 228 224 233 246 251 250 254 256 269 239 234 236 240 240 246 242 232 222 217 215 226 231 223 219 222
336 354 337 5 343 319 17 285 294 268 206 207 249 234 246 283 279 279 274 271 233 235 252 252 251 253 251 239 229 233 231 240 247 243 232 219 212 221 228 236 230 216 220
19 12 346 324 317 16 269 257 230 233 238 224 202 204 200 227 236 241 254 261 268 264 267 260 253 258 249 250 237 235 236 230 230 226 228 223 225 231 234 236 237 238 230
33 14 356 342 4 338 329 316 302 275 256 258 296 290 342 345 330 38 314 314 313 304 293 280 270 271 260 251 250 249 244 232 231 234 232 233 235 235 247 249 230 234 224
58 47 29 25 34 10 10 19 19 14 24 29 20 13 8 11 10 3 359 350 339 6 21 27 28 30 34 228 240 249 223 220 220 222 237 240 241 245 250 249 226 226 236
46 48 47 44 36 31 37 37 35 29 29 28 26 23 19 18 15 12 15 14 17 28 46 26 316 319 339 314 279 271 246 229 226 228 230 241 239 242 240 234 230 227 228